DW4252 Weather Reports


Display with metric or nautical units.
time (UTC)temp
F
wind
direction
speed
MPH
gust
MPH
rain 1hr
in
rain 24hr
in
rain mn
in
humidity
%
barometer
mb
20260505171006 60 58 7.0 11.0 0.00 0.00 0.00 47 1011.5
20260505170006 60 51 8.0 11.0 0.00 0.00 0.00 46 1011.5
20260505165006 60 46 7.0 11.0 0.00 0.00 0.00 46 1011.7
20260505164006 60 46 7.0 10.0 0.00 0.00 0.00 46 1011.5
20260505163008 61 50 7.0 10.0 0.00 0.00 0.00 45 1011.6
20260505162006 61 50 8.0 12.0 0.00 0.00 0.00 45 1011.7
20260505161007 62 49 7.0 11.0 0.00 0.00 0.00 45 1011.6
20260505153006 62 55 9.0 14.0 0.00 0.00 0.00 45 1011.6
20260505152007 62 47 10.0 16.0 0.00 0.00 0.00 45 1011.4
20260505151007 62 51 10.0 16.0 0.00 0.00 0.00 44 1011.5
20260505125006 63 58 11.0 17.0 0.00 0.00 0.00 46 1012.0
20260505124006 63 48 9.0 14.0 0.00 0.00 0.00 48 1011.9
20260505123006 63 44 9.0 15.0 0.00 0.00 0.00 48 1011.9
20260505122006 63 38 11.0 15.0 0.00 0.00 0.00 46 1012.0
20260505121007 64 33 7.0 11.0 0.00 0.00 0.00 48 1012.1
20260505120006 64 38 8.0 11.0 0.00 0.00 0.00 49 1012.0
20260505115006 64 34 7.0 12.0 0.00 0.00 0.00 53 1011.8
20260505114006 63 25 6.0 11.0 0.00 0.00 0.00 53 1011.9
20260505113006 63 22 8.0 12.0 0.00 0.00 0.00 54 1012.0
20260505112006 62 13 8.0 12.0 0.00 0.00 0.00 58 1012.1
20260505111006 62 12 9.0 12.0 0.00 0.00 0.00 58 1012.3
20260505102007 64 8 10.0 13.0 0.00 0.00 0.00 54 1012.3
20260505101006 64 6 8.0 13.0 0.00 0.00 0.00 55 1012.2
20260505100006 61 12 10.0 16.0 0.00 0.00 0.00 63 1012.4
20260505095007 60 15 10.0 14.0 0.00 0.00 0.00 63 1012.3
20260505094006 60 20 10.0 14.0 0.00 0.00 0.00 63 1012.5
20260505093006 61 20 8.0 13.0 0.00 0.00 0.00 64 1012.6
20260505092006 60 18 9.0 13.0 0.00 0.00 0.00 65 1012.6
20260505091008 58 16 8.0 11.0 0.00 0.00 0.00 66 1012.8
20260505090006 57 15 8.0 10.0 0.00 0.00 0.00 69 1012.5
20260505085007 57 18 9.0 14.0 0.00 0.00 0.00 68 1012.6
20260505084006 57 22 9.0 15.0 0.00 0.00 0.00 68 1012.8
20260505083006 57 29 9.0 13.0 0.00 0.00 0.00 72 1012.8
20260505082006 57 37 8.0 13.0 0.00 0.00 0.00 73 1012.8
20260505081006 56 36 8.0 11.0 0.00 0.00 0.00 73 1012.8
20260505080007 56 33 8.0 11.0 0.00 0.00 0.00 74 1012.7
20260505075006 56 19 8.0 11.0 0.00 0.00 0.00 75 1012.9
20260505074006 56 8 7.0 12.0 0.00 0.00 0.00 75 1012.9
20260505072007 55 16 6.0 11.0 0.00 0.00 0.00 77 1012.8
20260505071006 55 18 6.0 8.0 0.00 0.00 0.00 78 1012.9
20260505070006 55 22 6.0 10.0 0.00 0.00 0.00 80 1013.0
20260505065006 54 11 7.0 9.0 0.00 0.00 0.00 80 1012.8
20260505064007 54 9 8.0 12.0 0.00 0.00 0.00 81 1013.1
20260505063007 54 11 6.0 9.0 0.00 0.00 0.00 83 1013.1
20260505062007 54 9 7.0 11.0 0.00 0.00 0.00 84 1013.3
20260505061006 54 17 5.0 7.0 0.00 0.00 0.00 87 1013.1
20260505060007 53 21 5.0 7.0 0.00 0.00 0.00 92 1013.2
20260505055006 52 29 4.0 10.0 0.00 0.00 0.00 93 1013.2
20260505054006 51 32 6.0 10.0 0.00 0.00 0.00 93 1012.9
20260505053007 51 33 5.0 8.0 0.00 0.00 0.00 93 1012.9
20260505052006 51 23 5.0 7.0 0.00 0.00 0.00 93 1012.9
20260505041011 50 21 4.0 7.0 0.00 0.00 0.00 93 1013.1
20260505040006 50 20 2.0 4.0 0.00 0.00 0.00 93 1013.2
20260505035005 50 26 3.0 4.0 0.00 0.00 0.00 93 1013.3
20260505034005 50 42 3.0 4.0 0.00 0.00 0.00 92 1013.4
20260505033006 50 55 2.0 4.0 0.00 0.00 0.00 91 1013.5
20260505032005 50 59 2.0 4.0 0.00 0.00 0.00 91 1013.4
20260505030006 51 55 3.0 5.0 0.00 0.00 0.00 90 1013.5
20260505025006 51 57 2.0 4.0 0.00 0.00 0.00 90 1013.3
20260505024006 51 55 2.0 4.0 0.00 0.00 0.00 90 1013.3
20260505022006 52 62 3.0 5.0 0.00 0.00 0.00 90 1013.3
20260505020005 52 66 4.0 6.0 0.00 0.00 0.00 90 1013.5
20260505015005 52 69 4.0 7.0 0.00 0.00 0.00 90 1013.7
20260505013006 53 69 6.0 10.0 0.00 0.00 0.00 90 1013.8
20260505012006 53 68 6.0 11.0 0.00 0.00 0.00 90 1013.9
20260505011005 53 63 5.0 9.0 0.00 0.00 0.00 90 1014.0
20260505010006 53 58 4.0 6.0 0.00 0.00 0.00 90 1013.6
20260505005006 53 57 4.0 7.0 0.00 0.00 0.00 90 1013.9
20260505004005 53 57 5.0 7.0 0.00 0.00 0.00 90 1014.2
20260505003006 53 61 6.0 8.0 0.00 0.00 0.00 90 1014.3
20260505002006 53 58 4.0 6.0 0.00 0.00 0.00 91 1014.3
20260505001006 53 58 3.0 6.0 0.00 0.00 0.00 91 1014.5
20260505000006 53 53 3.0 5.0 0.00 0.00 0.00 90 1014.6
20260504235006 53 48 4.0 5.0 0.00 0.00 0.00 90 1014.6
20260504234006 53 50 4.0 6.0 0.00 0.00 0.00 89 1014.6
20260504233006 53 52 4.0 6.0 0.00 0.00 0.00 88 1014.5
20260504232006 54 58 2.0 5.0 0.00 0.00 0.00 85 1014.3
20260504231006 54 50 1.0 3.0 0.00 0.00 0.00 85 1014.3
20260504230013 54 56 2.0 4.0 0.00 0.00 0.00 85 1014.4
20260504225006 54 61 3.0 4.0 0.00 0.00 0.00 85 1014.3
20260504224006 55 55 2.0 3.0 0.00 0.00 0.00 85 1014.3
20260504223006 55 69 2.0 3.0 0.00 0.00 0.00 85 1014.4
20260504222006 55 78 2.0 3.0 0.00 0.00 0.00 85 1014.6
20260504221006 55 82 2.0 4.0 0.00 0.00 0.00 86 1014.7
20260504220006 55 85 2.0 4.0 0.00 0.00 0.00 86 1014.6
20260504215005 55 79 3.0 5.0 0.00 0.00 0.00 86 1014.6
20260504214006 55 69 4.0 5.0 0.00 0.00 0.00 86 1014.8
20260504213006 55 62 3.0 6.0 0.00 0.00 0.00 86 1014.7
20260504212006 54 62 4.0 7.0 0.00 0.00 0.00 86 1014.7
20260504211006 54 147 2.0 4.0 0.00 0.00 0.00 86 1014.7
20260504210005 54 184 1.0 2.0 0.00 0.00 0.00 85 1014.7
20260504205006 54 193 1.0 2.0 0.00 0.00 0.00 84 1014.7
20260504204006 54 194 1.0 3.0 0.00 0.00 0.00 84 1014.6
20260504203006 54 196 1.0 2.0 0.00 0.00 0.00 83 1014.6
20260504202006 54 221 1.0 2.0 0.00 0.00 0.00 83 1014.6
20260504201006 55 242 1.0 2.0 0.00 0.00 0.00 82 1014.5
20260504200007 55 270 1.0 3.0 0.00 0.00 0.00 81 1014.4
20260504194006 56 286 1.0 3.0 0.00 0.00 0.00 80 1014.4
20260504193006 57 333 2.0 4.0 0.00 0.00 0.00 79 1014.2
20260504192006 58 24 2.0 4.0 0.00 0.00 0.00 78 1014.1
20260504191007 58 42 2.0 4.0 0.00 0.00 0.00 76 1014.0
20260504190006 58 58 3.0 4.0 0.00 0.00 0.00 76 1013.9
20260504185007 59 58 3.0 4.0 0.00 0.00 0.00 75 1014.0
20260504184006 59 61 3.0 6.0 0.00 0.00 0.00 75 1014.0
20260504182007 60 65 5.0 8.0 0.00 0.00 0.00 74 1013.9
20260504181007 60 70 6.0 10.0 0.00 0.00 0.00 74 1013.8
20260504180007 61 79 4.0 6.0 0.00 0.00 0.00 74 1013.7
20260504174007 61 75 5.0 9.0 0.00 0.00 0.00 74 1014.0
20260504173007 61 93 4.0 8.0 0.00 0.00 0.00 73 1014.0
20260504172006 62 55 4.0 7.0 0.00 0.00 0.00 73 1013.9